Weather History for Poplar Bluff, MO

Change the Weather History Date:

Monday, July 15, 2013

  Actual Average Record
Temperature  
Mean Temperature 82 °F -  
Max Temperature 91 °F 92 °F 107 °F (1980)
Min Temperature 73 °F 69 °F 50 °F (1926)
Cooling Degree Days 16    
Growing Degree Days 32 (Base 50)    
Moisture  
Dew Point 72 °F    
Average Humidity 76    
Maximum Humidity 90    
Minimum Humidity 54    
Precipitation  
Precipitation 0.14 in - - ()
Sea Level Pressure  
Sea Level Pressure 30.16 in    
Wind  
Wind Speed 6 mph (SE)    
Max Wind Speed 10 mph    
Max Gust Speed 20 mph    
Visibility 9 miles    
Events Rain    
Averages and records for this station are not official NWS values.
T = Trace of Precipitation, MM = Missing Value Source: NWS Daily Summary

Daily Weather History Graph

Daily Weather History Graph

Search for Another Location

Airport:

Trip Planner

Search our weather history database for the weather conditions in past years. The results will help you decide how hot, cold, wet, or windy it might be!

Date:

Astronomy

Jul. 15, 2013 Rise Set
Actual Time 5:54 AM CDT 8:20 PM CDT
Civil Twilight 5:24 AM CDT 8:49 PM CDT
Nautical Twilight 4:47 AM CDT 9:26 PM CDT
Astronomical Twilight 4:06 AM CDT 10:07 PM CDT
Moon 1:01 PM CDT (7/15) No Moon Set
Length of Visible Light 15h 25m
Length of Day
14h 25m
Waxing Crescent, 45% of the Moon is Illuminated
Jul 15
Waxing Crescent
Jul 15
First Quarter
Jul 22
Full
Jul 29
Last Quarter
Aug 6
New

Hourly Weather History & Observations

Time (CDT) Temp. Heat Index Dew Point Humidity Pressure Visibility Wind Dir Wind Speed Gust Speed Precip Events Conditions
12:53 AM 75.0 °F - 71.1 °F 87% 30.09 in 10.0 mi NE 6.9 mph - N/A   Clear
1:53 AM 73.9 °F - 70.0 °F 87% 30.09 in 10.0 mi ENE 6.9 mph - N/A   Clear
2:53 AM 73.9 °F - 70.0 °F 87% 30.09 in 10.0 mi ENE 3.5 mph - N/A   Mostly Cloudy
3:53 AM 73.0 °F - 70.0 °F 90% 30.09 in 8.0 mi ENE 3.5 mph - N/A   Scattered Clouds
4:53 AM 73.0 °F - 70.0 °F 90% 30.11 in 8.0 mi NE 3.5 mph - N/A   Scattered Clouds
5:53 AM 73.9 °F - 70.0 °F 87% 30.14 in 8.0 mi NE 4.6 mph - N/A   Overcast
6:53 AM 75.0 °F - 71.1 °F 87% 30.15 in 10.0 mi East 3.5 mph - N/A   Overcast
7:53 AM 77.0 °F - 72.0 °F 84% 30.16 in 10.0 mi SE 4.6 mph - N/A   Mostly Cloudy
8:53 AM 80.1 °F 83.8 °F 72.0 °F 76% 30.17 in 10.0 mi SE 8.1 mph - N/A   Scattered Clouds
9:06 AM 80.6 °F 85.4 °F 73.4 °F 79% 30.19 in 10.0 mi SSE 6.9 mph - N/A   Mostly Cloudy
9:15 AM 82.4 °F 88.2 °F 73.4 °F 74% 30.19 in 10.0 mi SE 9.2 mph - N/A   Mostly Cloudy
9:25 AM 82.4 °F 88.2 °F 73.4 °F 74% 30.19 in 10.0 mi SSE 8.1 mph - N/A   Mostly Cloudy
9:35 AM 82.4 °F 88.2 °F 73.4 °F 74% 30.19 in 10.0 mi SSE 5.8 mph - N/A   Scattered Clouds
9:53 AM 82.9 °F 88.0 °F 72.0 °F 69% 30.18 in 10.0 mi SSE 8.1 mph - N/A   Scattered Clouds
10:15 AM 84.2 °F 89.6 °F 71.6 °F 66% 30.20 in 10.0 mi SSE 9.2 mph - N/A   Mostly Cloudy
10:53 AM 84.0 °F 89.6 °F 72.0 °F 67% 30.18 in 10.0 mi SSE 4.6 mph - N/A   Mostly Cloudy
11:00 AM 84.2 °F 89.6 °F 71.6 °F 66% 30.20 in 10.0 mi ESE 6.9 mph - N/A   Scattered Clouds
11:30 AM 80.6 °F 85.4 °F 73.4 °F 79% 30.20 in 10.0 mi SW 9.2 mph - 0.00 in   Overcast
11:43 AM 78.8 °F - 73.4 °F 83% 30.20 in 1.8 mi SW 6.9 mph - 0.05 in Rain Heavy Rain
11:50 AM 77.0 °F - 73.4 °F 89% 30.20 in 2.5 mi South 10.4 mph 19.6 mph 0.07 in Rain Rain
11:53 AM 77.0 °F - 73.0 °F 88% 30.19 in 1.8 mi South 6.9 mph 19.6 mph 0.09 in Rain Heavy Rain
11:57 AM 77.0 °F - 73.4 °F 89% 30.20 in 2.0 mi South 6.9 mph - 0.04 in Rain Rain
12:08 PM 78.8 °F - 75.2 °F 89% 30.19 in 6.0 mi Variable 3.5 mph - 0.04 in Rain Light Rain
12:53 PM 84.9 °F 93.3 °F 75.0 °F 72% 30.17 in 10.0 mi SSE 9.2 mph - 0.04 in   Clear
1:53 PM 88.0 °F 97.5 °F 75.0 °F 65% 30.15 in 10.0 mi South 6.9 mph - N/A   Partly Cloudy
2:53 PM 87.1 °F 93.6 °F 72.0 °F 61% 30.14 in 10.0 mi SSE 4.6 mph - N/A   Overcast
3:53 PM 90.0 °F 96.4 °F 71.1 °F 54% 30.12 in 10.0 mi ESE 8.1 mph - 0.00 in   Scattered Clouds
4:53 PM 89.1 °F 96.0 °F 72.0 °F 57% 30.12 in 10.0 mi ESE 9.2 mph - N/A   Mostly Cloudy
5:53 PM 89.1 °F 95.0 °F 71.1 °F 55% 30.11 in 10.0 mi ESE 8.1 mph - N/A   Scattered Clouds
6:53 PM 84.9 °F 90.7 °F 72.0 °F 65% 30.12 in 10.0 mi ESE 8.1 mph - 0.01 in   Scattered Clouds
7:53 PM 84.9 °F 90.1 °F 71.1 °F 63% 30.14 in 10.0 mi SE 5.8 mph - N/A   Scattered Clouds
8:53 PM 82.9 °F 87.5 °F 71.1 °F 67% 30.16 in 10.0 mi East 4.6 mph - N/A   Mostly Cloudy
9:53 PM 82.0 °F 86.7 °F 72.0 °F 71% 30.18 in 10.0 mi ESE 5.8 mph - 0.00 in   Mostly Cloudy
10:53 PM 80.1 °F 83.8 °F 72.0 °F 76% 30.20 in 10.0 mi ESE 3.5 mph - N/A   Partly Cloudy
11:53 PM 77.0 °F - 73.0 °F 88% 30.20 in 10.0 mi East 3.5 mph - N/A   Clear